LA8QT Lodingen NO current weather conditions

sailwx.info

Wind from 078 at 7 knots

Air temperature 11.7° C
Dewpoint 8.0° C

Last reported at 2014-Aug-27 14:53 UTC.
Time now 2014-Aug-27 15:12 UTC

Location: N 68°28' E 016°04'.
View on Google Maps.

See reports from other nearby stations

  
Tides and Currents Weather Stations Pressure Air Temp Water Temp Dewpoint Dewpoint Depression Visibility Wind Speed Wind Dir Waves Ship Positions
date/time (UTC)wind fromknots sea level pressurealtimeterstation pressurevisibilityair tempwater tempwave heightnotes
2014-Aug-27 14:53 078 7 11.7
2014-Aug-27 14:38 064 6 12.2
2014-Aug-27 14:23 064 6 11.7
2014-Aug-27 14:08 076 6 11.7
2014-Aug-27 13:53 066 6 11.7
2014-Aug-27 13:38 072 5 11.7
2014-Aug-27 13:23 066 6 12.2
2014-Aug-27 13:08 072 6 12.2
2014-Aug-27 12:53 056 5 11.7
2014-Aug-27 12:38 061 6 11.7
2014-Aug-27 12:23 071 5 11.7
2014-Aug-27 12:08 072 6 11.7
2014-Aug-27 11:53 067 6 11.1
2014-Aug-27 11:38 066 6 11.1
2014-Aug-27 11:23 066 5 11.1
2014-Aug-27 11:08 066 5 11.1
2014-Aug-27 10:53 066 5 11.1
2014-Aug-27 10:38 066 4 11.1
2014-Aug-27 10:23 066 6 10.6
2014-Aug-27 10:08 064 5 10.6
2014-Aug-27 09:53 063 4 11.1
2014-Aug-27 09:38 063 5 11.1
2014-Aug-27 09:23 064 4 10.6
2014-Aug-27 09:07 066 4 10.6
2014-Aug-27 08:52 066 4 10.6
2014-Aug-27 08:37 070 4 10.6
2014-Aug-27 08:22 070 6 10.6
2014-Aug-27 08:07 069 6 10.0
2014-Aug-27 07:52 068 6 10.0
2014-Aug-27 07:37 061 5 10.0
2014-Aug-27 07:22 059 4 10.0
2014-Aug-27 07:07 059 5 10.0
2014-Aug-27 06:52 053 4 10.0
2014-Aug-27 06:37 053 5 9.4
2014-Aug-27 06:22 053 5 9.4
2014-Aug-27 06:07 053 4 9.4
2014-Aug-27 05:52 053 4 9.4
2014-Aug-27 05:37 048 3 9.4
2014-Aug-27 05:22 048 4 9.4
2014-Aug-27 05:07 047 3 9.4
2014-Aug-27 04:52 047 3 9.4
2014-Aug-27 04:37 044 4 9.4
2014-Aug-27 04:22 044 4 9.4
2014-Aug-27 04:07 044 4 9.4
2014-Aug-27 03:52 042 4 9.4
2014-Aug-27 03:37 042 3 9.4
2014-Aug-27 03:22 042 3 9.4
2014-Aug-27 03:07 041 1 9.4
2014-Aug-27 02:52 041 0 9.4
2014-Aug-27 02:37 041 8.9
2014-Aug-27 02:22 042 8.9
2014-Aug-27 02:07 042 0 8.9
2014-Aug-27 01:52 042 0 8.9
2014-Aug-27 01:37 042 3 9.4
2014-Aug-27 01:22 042 5 9.4
2014-Aug-27 01:07 042 5 9.4
2014-Aug-27 00:52 041 4 9.4
2014-Aug-27 00:37 040 2 9.4
2014-Aug-27 00:22 041 5 9.4
2014-Aug-26 23:52 041 5 9.4
2014-Aug-26 23:37 041 4 9.4
2014-Aug-26 23:07 041 6 10.0
2014-Aug-26 22:52 041 5 10.0
2014-Aug-26 22:37 047 4 10.0
2014-Aug-26 22:22 036 2 10.0
2014-Aug-26 22:07 035 0 10.6
2014-Aug-26 21:52 035 2 10.6
2014-Aug-26 21:37 035 1 10.6
2014-Aug-26 21:22 035 3 10.6
2014-Aug-26 21:07 026 3 11.1
2014-Aug-26 20:52 026 4 11.7
2014-Aug-26 20:37 023 6 12.2
2014-Aug-26 20:22 028 4 11.7
2014-Aug-26 20:07 030 5 12.2
2014-Aug-26 19:52 078 1 12.2
2014-Aug-26 19:37 078 2 12.2
2014-Aug-26 19:22 078 2 12.2
2014-Aug-26 19:07 078 2 12.2
2014-Aug-26 18:51 078 0 12.8
2014-Aug-26 18:36 078 3 12.8
2014-Aug-26 18:21 078 12.8
2014-Aug-26 18:06 078 0 12.8
2014-Aug-26 17:51 078 12.2
2014-Aug-26 17:36 078 12.8
2014-Aug-26 17:21 078 13.3
2014-Aug-26 17:06 078 13.9
2014-Aug-26 16:51 078 13.9
2014-Aug-26 16:36 078 13.9
2014-Aug-26 16:21 078 13.9
2014-Aug-26 16:06 078 13.9
2014-Aug-26 15:51 078 14.4
2014-Aug-26 15:36 078 14.4
2014-Aug-26 15:21 078 15.0
2014-Aug-26 15:06 078 15.0
2014-Aug-26 14:51 078 0 15.0
2014-Aug-26 14:36 078 0 15.0
2014-Aug-26 14:21 078 15.6
2014-Aug-26 14:06 078 1 15.6
2014-Aug-26 13:51 078 16.1
2014-Aug-26 13:36 078 16.7
2014-Aug-26 13:21 078 16.7
2014-Aug-26 13:06 076 3 16.1
2014-Aug-26 12:51 076 5 16.1
2014-Aug-26 12:36 076 5 16.1
2014-Aug-26 12:21 076 5 16.1
2014-Aug-26 12:06 076 5 15.6
2014-Aug-26 11:51 076 6 15.6
2014-Aug-26 11:36 076 6 15.6
2014-Aug-26 11:21 076 6 15.6
2014-Aug-26 11:06 076 6 15.6
2014-Aug-26 10:51 067 5 15.6
2014-Aug-26 10:36 061 4 15.6
2014-Aug-26 10:21 077 5 15.0
2014-Aug-26 10:06 077 6 14.4
2014-Aug-26 09:51 076 6 14.4
2014-Aug-26 09:36 076 6 14.4
2014-Aug-26 09:21 073 6 14.4
2014-Aug-26 09:06 066 5 14.4
2014-Aug-26 08:51 077 5 13.9
2014-Aug-26 08:36 078 6 13.9
2014-Aug-26 08:21 076 6 13.9
2014-Aug-26 08:06 075 6 13.3
2014-Aug-26 07:51 062 6 13.3
2014-Aug-26 07:36 067 6 13.3
2014-Aug-26 07:21 060 6 12.8
2014-Aug-26 07:06 055 6 12.8
2014-Aug-26 06:51 052 6 12.8
2014-Aug-26 06:36 054 6 12.2
2014-Aug-26 06:21 046 6 12.2
2014-Aug-26 06:06 049 3 12.8
2014-Aug-26 05:51 052 3 12.2
2014-Aug-26 05:36 048 6 11.7
2014-Aug-26 05:21 063 5 11.7
2014-Aug-26 05:06 055 4 11.7
2014-Aug-26 04:51 056 4 11.7
2014-Aug-26 04:36 059 3 11.7
2014-Aug-26 04:21 060 4 11.1
2014-Aug-26 04:06 058 3 11.1
2014-Aug-26 03:51 066 1 10.6
2014-Aug-26 03:35 066 2 10.6
2014-Aug-26 03:20 067 3 10.6
2014-Aug-26 03:05 068 11.1
2014-Aug-26 02:50 068 10.6
2014-Aug-26 02:35 068 2 10.0
2014-Aug-26 02:20 069 10.6
2014-Aug-26 02:05 068 10.6
2014-Aug-26 01:50 068 10.6
2014-Aug-26 01:35 069 0 11.1
2014-Aug-26 01:20 068 1 11.1
2014-Aug-26 01:05 069 1 11.1
2014-Aug-26 00:50 068 2 10.6
2014-Aug-26 00:35 068 4 10.6
2014-Aug-26 00:20 073 7 11.1
2014-Aug-26 00:05 072 6 11.7
2014-Aug-25 23:50 068 6 11.7
2014-Aug-25 23:35 045 5 12.2
2014-Aug-25 23:20 043 6 12.2
2014-Aug-25 23:05 066 5 10.6
2014-Aug-25 22:50 066 4 10.6
2014-Aug-25 22:35 066 4 10.6
2014-Aug-25 22:20 066 4 10.6
2014-Aug-25 22:05 066 4 10.6
2014-Aug-25 21:50 065 1 10.6
2014-Aug-25 21:35 065 3 11.1
2014-Aug-25 21:20 066 11.1
2014-Aug-25 21:05 064 0 11.1
2014-Aug-25 20:50 065 1 11.7
2014-Aug-25 20:35 066 12.2
2014-Aug-25 20:20 066 1 13.3
2014-Aug-25 20:05 066 4 12.8
2014-Aug-25 19:50 066 6 12.2
2014-Aug-25 19:35 060 5 13.3
2014-Aug-25 19:20 035 4 13.9
2014-Aug-25 19:05 035 5 13.9
2014-Aug-25 18:50 035 6 13.9
2014-Aug-25 18:35 035 6 13.9
2014-Aug-25 18:20 037 6 14.4
2014-Aug-25 18:05 031 7 14.4
2014-Aug-25 17:50 035 6 15.0
2014-Aug-25 17:35 039 7 15.0
2014-Aug-25 17:20 029 6 15.0
2014-Aug-25 17:05 032 5 15.6
2014-Aug-25 16:50 039 6 16.1
2014-Aug-25 16:35 027 6 16.1
2014-Aug-25 16:20 024 5 16.7
2014-Aug-25 16:05 037 3 16.7
2014-Aug-25 15:50 049 3 16.7
2014-Aug-25 15:35 066 2 16.7
2014-Aug-25 15:20 070 2 16.7
2014-Aug-25 15:05 070 1 16.7